This is the latest recevied weather packets stored in our database for station/object K3RUP-1. If no packets are shown the sender has not sent any weather packets the latest 10 day(s).
| Time | Temp. | Humidity | Pressure | Rain* | Wind** | Luminosity | Snow |
|---|---|---|---|---|---|---|---|
| 1777952971 | 15° C | 82% | 1010.1 hPa | 0 mm | - | 0 W/m² | - |
| 1777952667 | 15.56° C | 82% | 1010.4 hPa | 0 mm | - | 0 W/m² | - |
| 1777952364 | 15.56° C | 81% | 1010 hPa | 0 mm | - | 0 W/m² | - |
| 1777952061 | 15.56° C | 81% | 1010.2 hPa | 0 mm | - | 0 W/m² | - |
| 1777951759 | 15.56° C | 81% | 1010.2 hPa | 0 mm | - | 0 W/m² | - |
| 1777951456 | 15.56° C | 80% | 1010.2 hPa | 0 mm | - | 0 W/m² | - |
| 1777951153 | 15.56° C | 80% | 1010.1 hPa | 0 mm | - | 0 W/m² | - |
| 1777950849 | 16.11° C | 79% | 1010.2 hPa | 0 mm | - | 0 W/m² | - |
| 1777950546 | 16.11° C | 78% | 1010.2 hPa | 0 mm | - | 0 W/m² | - |
| 1777950242 | 16.11° C | 78% | 1010.3 hPa | 0 mm | - | 0 W/m² | - |
| 1777949937 | 16.11° C | 77% | 1010.1 hPa | 0 mm | - | 0 W/m² | - |
| 1777949636 | 16.67° C | 77% | 1010.3 hPa | 0 mm | - | 0 W/m² | - |
| 1777949334 | 16.67° C | 76% | 1010.1 hPa | 0 mm | - | 0 W/m² | - |
| 1777949031 | 16.67° C | 76% | 1010 hPa | 0 mm | - | 0 W/m² | - |
| 1777948728 | 16.67° C | 75% | 1010.2 hPa | 0 mm | - | 0 W/m² | - |
| 1777948425 | 16.67° C | 75% | 1010.3 hPa | 0 mm | - | 0 W/m² | - |
| 1777948122 | 16.67° C | 74% | 1010.4 hPa | 0 mm | - | 0 W/m² | - |
| 1777947819 | 17.22° C | 73% | 1010.1 hPa | 0 mm | - | 0 W/m² | - |
| 1777947517 | 17.22° C | 73% | 1010.3 hPa | 0 mm | - | 0 W/m² | - |
| 1777947213 | 17.22° C | 73% | 1010 hPa | 0 mm | - | 0 W/m² | - |
| 1777946909 | 16.67° C | 73% | 1010.1 hPa | 0 mm | - | 0 W/m² | - |
| 1777946604 | 16.67° C | 73% | 1009.8 hPa | 0 mm | - | 0 W/m² | - |
| 1777946302 | 16.67° C | 72% | 1010.2 hPa | 0 mm | - | 0 W/m² | - |
| 1777945999 | 16.67° C | 73% | 1009.9 hPa | 0 mm | - | 0 W/m² | - |
| 1777945696 | 16.67° C | 73% | 1009.8 hPa | 0 mm | - | 0 W/m² | - |
* Rain latest hour (hover to see other rain measurements)
** Current wind speed in m/s (hover to see current wind gust speed)